TimeEDT,TemperatureF,Dew PointF,Humidity,Sea Level PressureIn,VisibilityMPH,Wind Direction,Wind SpeedMPH,Gust SpeedMPH,PrecipitationIn,Events,Conditions,WindDirDegrees,DateUTC
12:56 AM,64.9,53.1,65,30.16,-9999.0,SSW,6.9,-,N/A,,Unknown,200,2013-08-17 04:56:00
1:56 AM,64.9,53.1,65,30.16,-9999.0,SSW,6.9,-,N/A,,Unknown,210,2013-08-17 05:56:00
2:56 AM,63.0,53.1,70,30.16,-9999.0,SSW,6.9,-,N/A,,Unknown,210,2013-08-17 06:56:00
3:56 AM,63.0,53.1,70,30.16,-9999.0,SSW,9.2,-,N/A,,Unknown,200,2013-08-17 07:56:00
4:56 AM,62.1,53.1,72,30.17,-9999.0,SSW,10.4,-,N/A,,Unknown,210,2013-08-17 08:56:00
5:56 AM,61.0,53.1,75,30.17,-9999.0,SSW,9.2,-,N/A,,Unknown,200,2013-08-17 09:56:00
6:56 AM,60.1,53.1,78,30.17,-9999.0,SSW,9.2,-,N/A,,Unknown,200,2013-08-17 10:56:00
7:56 AM,61.0,53.1,75,30.19,-9999.0,South,9.2,-,N/A,,Unknown,190,2013-08-17 11:56:00
8:56 AM,66.0,55.0,68,30.19,-9999.0,SSW,8.1,-,N/A,,Unknown,200,2013-08-17 12:56:00
9:56 AM,71.1,57.0,61,30.20,-9999.0,South,5.8,-,N/A,,Unknown,180,2013-08-17 13:56:00
10:56 AM,75.9,57.9,54,30.20,-9999.0,Calm,Calm,-,N/A,,Unknown,0,2013-08-17 14:56:00
11:56 AM,75.9,61.0,60,30.19,-9999.0,NE,6.9,-,N/A,,Unknown,40,2013-08-17 15:56:00
12:56 PM,73.9,59.0,59,30.18,-9999.0,NE,6.9,-,N/A,,Unknown,40,2013-08-17 16:56:00
1:56 PM,78.1,57.9,50,30.17,-9999.0,North,4.6,-,N/A,,Unknown,350,2013-08-17 17:56:00
2:56 PM,75.9,59.0,56,30.15,-9999.0,NE,9.2,-,N/A,,Unknown,50,2013-08-17 18:56:00
3:56 PM,75.0,59.0,57,30.14,-9999.0,NNE,11.5,-,N/A,,Unknown,20,2013-08-17 19:56:00
4:56 PM,75.9,59.0,56,30.13,-9999.0,NNE,6.9,-,N/A,,Unknown,20,2013-08-17 20:56:00
5:56 PM,81.0,55.0,41,30.12,-9999.0,SW,6.9,17.3,N/A,,Unknown,220,2013-08-17 21:56:00
6:56 PM,80.1,54.0,40,30.12,-9999.0,SSW,5.8,-,N/A,,Unknown,200,2013-08-17 22:56:00
7:56 PM,78.1,52.0,40,30.12,-9999.0,SSW,8.1,16.1,N/A,,Unknown,210,2013-08-17 23:56:00
8:56 PM,73.9,52.0,46,30.12,-9999.0,SSW,5.8,-,N/A,,Unknown,200,2013-08-18 00:56:00
9:56 PM,71.1,54.0,55,30.12,-9999.0,SSW,5.8,-,N/A,,Unknown,210,2013-08-18 01:56:00
10:56 PM,69.1,52.0,54,30.13,-9999.0,SSW,5.8,-,N/A,,Unknown,200,2013-08-18 02:56:00
11:56 PM,68.0,51.1,55,30.13,-9999.0,SSW,6.9,-,N/A,,Unknown,200,2013-08-18 03:56:00